Location: Arthez
(43.0833°N, 0.2500°W)
Time: 20:24:55
(UTC+00:00)

Milstar 3 Cent rocket - Visible Passes

Search period start: 25 May 2022 00:00
Search period end: 04 June 2022 00:00
Orbit: 707 x 5145 km, 28.3° (Epoch: 24 May)

Date Brightness Start Highest point End Pass type
(mag) Time Alt. Az. Time Alt. Az. Time Alt. Az.
25 May 5.1 21:50:35 10° WSW 21:57:23 15° SW 22:01:53 11° SSW visible
26 May 5.1 19:53:04 10° W 20:11:04 33° SSW 20:20:41 10° SSE visible
27 May 5.1 20:48:46 10° W 21:01:43 23° SW 21:09:39 10° S visible
28 May 5.4 21:46:49 10° WSW 21:51:54 12° SW 21:56:01 10° SSW visible
29 May 5.3 19:46:58 10° W 20:05:33 31° SW 20:15:55 10° SSE visible
30 May 5.4 20:43:28 10° W 20:56:06 20° SW 21:04:17 10° S visible
01 Jun 5.5 19:41:00 10° W 19:59:46 28° SW 20:10:50 10° S visible
02 Jun 5.7 20:38:40 10° W 20:50:13 17° SW 20:58:18 10° SSW visible
